COSMOS 2520

Last updated on Tue Sep 22 2026 00:03:14 GMT+0000 (Coordinated Universal Time)

1 42907U 17046A 26264.07029550 .00000133 00000+0 00000+0 0 9993 2 42907 0.0251 122.5815 0000975 158.3711 149.3103 1.00271138 33351
UTC large
Height (km)
Speed (km/s)
/
Latitude / Longitude
Inclination (degrees)
Orbital Period (minutes)
Azimuth
Elevation
Range (km)
Doppler Factor

Next 0 passes for location: London (51.5072 / 0.1276)

No passes found over London.
COSMOS 2520